Time,TemperatureF,DewpointF,PressureIn,WindDirection,WindDirectionDegrees,WindSpeedMPH,WindSpeedGustMPH,Humidity,HourlyPrecipIn,Conditions,Clouds,dailyrainin,SoftwareType,DateUTC
2013-06-22 11:02:00,82.0,69.0,-100.00,SW,235,6.0,10.0,65,0.00,,,-99.99,,2013-06-22 15:02:00,
2013-06-22 11:12:00,82.0,69.0,-100.00,SW,235,6.0,10.0,65,0.00,,,-99.99,,2013-06-22 15:12:00,
2013-06-22 11:34:00,82.0,69.0,-100.00,West,265,7.0,12.0,64,0.00,,,-99.99,,2013-06-22 15:34:00,
2013-06-22 11:43:00,83.0,69.0,-100.00,SW,235,6.0,10.0,63,0.00,,,-99.99,,2013-06-22 15:43:00,
2013-06-22 11:53:00,85.0,69.0,-100.00,West,260,3.0,13.0,60,0.00,,,-99.99,,2013-06-22 15:53:00,
2013-06-22 12:02:00,84.0,69.0,-100.00,South,175,9.0,13.0,62,0.00,,,-99.99,,2013-06-22 16:02:00,
2013-06-22 12:12:00,85.0,70.0,-100.00,WSW,240,4.0,9.0,60,0.00,,,-99.99,,2013-06-22 16:12:00,
2013-06-22 12:22:00,85.0,70.0,-100.00,West,270,6.0,12.0,61,0.00,,,-99.99,,2013-06-22 16:22:00,
2013-06-22 12:34:00,84.0,69.0,-100.00,West,265,6.0,12.0,60,0.00,,,-99.99,,2013-06-22 16:34:00,
2013-06-22 12:43:00,85.0,69.0,-100.00,West,270,11.0,14.0,58,0.00,,,-99.99,,2013-06-22 16:43:00,
2013-06-22 12:52:00,85.0,70.0,-100.00,West,260,5.0,16.0,60,0.00,,,-99.99,,2013-06-22 16:52:00,
2013-06-22 13:02:00,85.0,68.0,-100.00,West,270,4.0,14.0,58,0.00,,,-99.99,,2013-06-22 17:02:00,
2013-06-22 13:11:00,86.0,70.0,-100.00,South,185,7.0,12.0,57,0.00,,,-99.99,,2013-06-22 17:11:00,
2013-06-22 13:22:00,86.0,69.0,-100.00,South,185,9.0,15.0,58,0.00,,,-99.99,,2013-06-22 17:22:00,
2013-06-22 13:34:00,87.0,69.0,-100.00,WSW,245,5.0,11.0,55,0.00,,,-99.99,,2013-06-22 17:34:00,
2013-06-22 13:43:00,85.0,69.0,-100.00,WSW,245,6.0,11.0,57,0.00,,,-99.99,,2013-06-22 17:43:00,
2013-06-22 13:52:00,85.0,70.0,-100.00,West,265,4.0,10.0,59,0.00,,,-99.99,,2013-06-22 17:52:00,
2013-06-22 14:02:00,87.0,69.0,-100.00,SW,230,4.0,9.0,55,0.00,,,-99.99,,2013-06-22 18:02:00,
2013-06-22 14:12:00,86.0,69.0,-100.00,West,280,7.0,12.0,57,0.00,,,-99.99,,2013-06-22 18:12:00,
2013-06-22 14:23:00,87.0,69.0,-100.00,SSW,195,4.0,9.0,55,0.00,,,-99.99,,2013-06-22 18:23:00,
2013-06-22 14:34:00,87.0,70.0,-100.00,SW,235,2.0,12.0,57,0.00,,,-99.99,,2013-06-22 18:34:00,
2013-06-22 14:43:00,87.0,68.0,-100.00,WSW,255,6.0,14.0,53,0.00,,,-99.99,,2013-06-22 18:43:00,
2013-06-22 14:52:00,88.0,69.0,-100.00,South,170,7.0,12.0,53,0.00,,,-99.99,,2013-06-22 18:52:00,
2013-06-22 15:01:00,87.0,69.0,-100.00,West,260,3.0,16.0,55,0.00,,,-99.99,,2013-06-22 19:01:00,
2013-06-22 15:11:00,87.0,69.0,-100.00,West,260,4.0,9.0,55,0.00,,,-99.99,,2013-06-22 19:11:00,
2013-06-22 15:22:00,86.0,69.0,-100.00,SSW,210,4.0,9.0,56,0.00,,,-99.99,,2013-06-22 19:22:00,
2013-06-22 15:33:00,86.0,69.0,-100.00,SSW,200,3.0,6.0,55,0.00,,,-99.99,,2013-06-22 19:33:00,
2013-06-22 15:43:00,86.0,69.0,-100.00,West,260,4.0,11.0,56,0.00,,,-99.99,,2013-06-22 19:43:00,
2013-06-22 15:53:00,87.0,70.0,-100.00,SSW,205,4.0,9.0,56,0.00,,,-99.99,,2013-06-22 19:53:00,
2013-06-22 16:02:00,86.0,69.0,-100.00,South,185,7.0,14.0,56,0.00,,,-99.99,,2013-06-22 20:02:00,
2013-06-22 16:11:00,86.0,68.0,-100.00,South,175,6.0,11.0,54,0.00,,,-99.99,,2013-06-22 20:11:00,
2013-06-22 16:22:00,87.0,68.0,-100.00,South,190,5.0,11.0,54,0.00,,,-99.99,,2013-06-22 20:22:00,
2013-06-22 16:33:00,86.0,70.0,-100.00,SSE,150,15.0,18.0,59,0.00,,,-99.99,,2013-06-22 20:33:00,
2013-06-22 16:43:00,86.0,70.0,-100.00,SSE,150,15.0,18.0,59,0.00,,,-99.99,,2013-06-22 20:43:00,
2013-06-22 16:53:00,85.0,69.0,-100.00,South,170,12.0,20.0,60,0.00,,,-99.99,,2013-06-22 20:53:00,
2013-06-22 17:01:00,85.0,69.0,-100.00,South,170,12.0,20.0,60,0.00,,,-99.99,,2013-06-22 21:01:00,
2013-06-22 17:11:00,85.0,69.0,-100.00,South,170,12.0,20.0,60,0.00,,,-99.99,,2013-06-22 21:11:00,
2013-06-22 17:22:00,84.0,69.0,-100.00,South,175,11.0,20.0,59,0.00,,,-99.99,,2013-06-22 21:22:00,
2013-06-22 17:34:00,84.0,69.0,-100.00,South,170,9.0,25.0,60,0.00,,,-99.99,,2013-06-22 21:34:00,
2013-06-22 17:43:00,83.0,69.0,-100.00,South,180,12.0,19.0,60,0.00,,,-99.99,,2013-06-22 21:43:00,
2013-06-22 17:53:00,84.0,68.0,-100.00,South,175,12.0,24.0,60,0.00,,,-99.99,,2013-06-22 21:53:00,
2013-06-22 18:02:00,83.0,67.0,-100.00,South,180,11.0,22.0,60,0.00,,,-99.99,,2013-06-22 22:02:00,
2013-06-22 18:12:00,83.0,67.0,-100.00,SSE,165,7.0,17.0,59,0.00,,,-99.99,,2013-06-22 22:12:00,
2013-06-22 18:23:00,83.0,67.0,-100.00,South,170,7.0,18.0,58,0.00,,,-99.99,,2013-06-22 22:23:00,
2013-06-22 18:33:00,84.0,68.0,-100.00,South,180,8.0,16.0,58,0.00,,,-99.99,,2013-06-22 22:33:00,
2013-06-22 18:43:00,84.0,69.0,-100.00,South,190,7.0,17.0,61,0.00,,,-99.99,,2013-06-22 22:43:00,
2013-06-22 18:52:00,84.0,70.0,-100.00,South,180,8.0,14.0,62,0.00,,,-99.99,,2013-06-22 22:52:00,
2013-06-22 19:01:00,84.0,70.0,-100.00,South,185,6.0,13.0,64,0.00,,,-99.99,,2013-06-22 23:01:00,
2013-06-22 19:11:00,83.0,71.0,-100.00,South,180,8.0,16.0,65,0.00,,,-99.99,,2013-06-22 23:11:00,
2013-06-22 19:22:00,83.0,70.0,-100.00,South,175,6.0,16.0,66,0.00,,,-99.99,,2013-06-22 23:22:00,
2013-06-22 19:34:00,83.0,69.0,-100.00,South,170,10.0,20.0,64,0.00,,,-99.99,,2013-06-22 23:34:00,
2013-06-22 19:43:00,83.0,68.0,-100.00,South,180,11.0,21.0,61,0.00,,,-99.99,,2013-06-22 23:43:00,
2013-06-22 19:52:00,82.0,68.0,-100.00,South,170,9.0,16.0,61,0.00,,,-99.99,,2013-06-22 23:52:00,
2013-06-22 20:01:00,82.0,65.0,-100.00,South,180,13.0,17.0,57,0.00,,,-99.99,,2013-06-23 00:01:00,
2013-06-22 20:11:00,82.0,64.0,-100.00,West,270,6.0,15.0,54,0.00,,,-99.99,,2013-06-23 00:11:00,
2013-06-22 20:22:00,81.0,63.0,-100.00,West,270,2.0,11.0,54,0.00,,,-99.99,,2013-06-23 00:22:00,
2013-06-22 20:33:00,80.0,63.0,-100.00,South,175,2.0,9.0,55,0.00,,,-99.99,,2013-06-23 00:33:00,
2013-06-22 20:42:00,80.0,63.0,-100.00,West,265,3.0,9.0,57,0.00,,,-99.99,,2013-06-23 00:42:00,
2013-06-22 20:53:00,79.0,63.0,-100.00,WSW,245,4.0,6.0,58,0.00,,,-99.99,,2013-06-23 00:53:00,
2013-06-22 21:01:00,79.0,63.0,-100.00,SW,220,3.0,7.0,59,0.00,,,-99.99,,2013-06-23 01:01:00,
2013-06-22 21:11:00,78.0,63.0,-100.00,SW,235,2.0,7.0,60,0.00,,,-99.99,,2013-06-23 01:11:00,
2013-06-22 21:22:00,78.0,63.0,-100.00,SW,235,2.0,7.0,60,0.00,,,-99.99,,2013-06-23 01:22:00,
2013-06-22 21:32:00,77.0,64.0,-100.00,West,270,1.0,3.0,64,0.00,,,-99.99,,2013-06-23 01:32:00,
2013-06-22 21:42:00,77.0,64.0,-100.00,SW,215,1.0,4.0,63,0.00,,,-99.99,,2013-06-23 01:42:00,
2013-06-22 21:52:00,77.0,64.0,-100.00,SW,215,1.0,4.0,63,0.00,,,-99.99,,2013-06-23 01:52:00,
2013-06-22 22:01:00,76.0,64.0,-100.00,South,180,1.0,4.0,66,0.00,,,-99.99,,2013-06-23 02:01:00,
2013-06-22 22:11:00,76.0,64.0,-100.00,West,265,1.0,4.0,67,0.00,,,-99.99,,2013-06-23 02:11:00,
2013-06-22 22:21:00,75.0,64.0,-100.00,SSW,200,1.0,2.0,69,0.00,,,-99.99,,2013-06-23 02:21:00,
2013-06-22 22:31:00,75.0,64.0,-100.00,West,265,1.0,3.0,68,0.00,,,-99.99,,2013-06-23 02:31:00,
2013-06-22 22:41:00,75.0,65.0,-100.00,West,280,1.0,3.0,69,0.00,,,-99.99,,2013-06-23 02:41:00,
2013-06-22 22:52:00,75.0,65.0,-100.00,South,180,2.0,6.0,71,0.00,,,-99.99,,2013-06-23 02:52:00,
2013-06-22 23:01:00,74.0,65.0,-100.00,SE,125,1.0,3.0,73,0.00,,,-99.99,,2013-06-23 03:01:00,
2013-06-22 23:11:00,74.0,65.0,-100.00,SE,130,0.0,4.0,74,0.55,,,-99.99,,2013-06-23 03:11:00,
2013-06-22 23:21:00,74.0,65.0,-100.00,SSE,165,1.0,3.0,74,0.00,,,-99.99,,2013-06-23 03:21:00,
2013-06-22 23:31:00,74.0,65.0,-100.00,SE,130,2.0,3.0,75,0.00,,,-99.99,,2013-06-23 03:31:00,
2013-06-22 23:41:00,73.0,66.0,-100.00,SE,125,1.0,3.0,79,0.00,,,-99.99,,2013-06-23 03:41:00,
2013-06-22 23:51:00,72.0,66.0,-100.00,SE,140,4.0,4.0,80,0.00,,,-99.99,,2013-06-23 03:51:00,